Location: Unspecified
(0.0000°N, 0.0000°E)
Time: 12:53:06
(UTC+00:00)

deb Explorer IX - Pass Details

Date: 23 October 2017
Orbit: 541 x 1122 km, 38.8° (Epoch: 22 November)

Event Time Altitude Azimuth Distance (km) Brightness Sun altitude
Exits shadow 04:30:40 34° 243° (WSW) 906 ? -18.0°
Maximum altitude 04:31:18 36° 221° (SW) 867 ? -17.9°
Drops below altitude 10° 04:35:08 10° 153° (SSE) 1,837 ? -17.0°
Sets 04:37:35 0° 144° (SE) 2,782 ? -16.3°
